Вернуться в каталог

STARLINK-30430

АктивенСвязьVLEO
NORAD 57849·PAYLOAD·🇺🇸 United States

Запущен Sep 12, 2023 с Vandenberg Space Force Base

Loading…

Ближайшие Пролёты (ближайшие 24 часа)

TLE

СвежийSource: CelesTrak SupGP

Эпоха: Sep 15, 2026, 03:18 UTC

1 57849C 23141K   26258.13798611  .00029479  00000+0  94793-3 0  2586
2 57849  53.1571 122.9870 0001282  83.3112 142.3913 15.31688356    17

Отслеживайте STARLINK-30430 в реальном времени с AllMySat

Download on the App Store